This is the latest recevied weather packets stored in our database for station/object YF9UAG-17. If no packets are shown the sender has not sent any weather packets the latest 10 day(s).
| Time | Temp. | Humidity | Pressure | Rain* | Wind** | Luminosity | Snow |
|---|---|---|---|---|---|---|---|
| 1787936873 | 27.78° C | 48% | 1033.4 hPa | - | - | - | - |
| 1787936270 | 27.78° C | 48% | 1033.5 hPa | - | - | - | - |
| 1787935661 | 27.78° C | 49% | 1033.6 hPa | - | - | - | - |
| 1787935058 | 28.33° C | 49% | 1033.7 hPa | - | - | - | - |
| 1787934456 | 28.33° C | 49% | 1033.8 hPa | - | - | - | - |
| 1787933854 | 28.33° C | 49% | 1033.9 hPa | - | - | - | - |
| 1787933251 | 28.33° C | 49% | 1034 hPa | - | - | - | - |
| 1787932649 | 28.33° C | 49% | 1034 hPa | - | - | - | - |
| 1787932046 | 28.33° C | 49% | 1034.1 hPa | - | - | - | - |
| 1787931444 | 28.89° C | 49% | 1034 hPa | - | - | - | - |
| 1787930842 | 28.89° C | 49% | 1034.2 hPa | - | - | - | - |
| 1787930239 | 28.89° C | 49% | 1034.1 hPa | - | - | - | - |
| 1787929637 | 28.89° C | 48% | 1034.1 hPa | - | - | - | - |
| 1787929034 | 29.44° C | 48% | 1034.1 hPa | - | - | - | - |
| 1787928432 | 29.44° C | 48% | 1034.1 hPa | - | - | - | - |
| 1787927830 | 30.56° C | 47% | 1034.2 hPa | - | - | - | - |
| 1787927227 | 30.56° C | 47% | 1034 hPa | - | - | - | - |
| 1787926625 | 29.44° C | 50% | 1033.9 hPa | - | - | - | - |
| 1787926022 | 29.44° C | 50% | 1033.8 hPa | - | - | - | - |
| 1787925420 | 29.44° C | 50% | 1033.8 hPa | - | - | - | - |
| 1787924818 | 29.44° C | 51% | 1033.6 hPa | - | - | - | - |
| 1787924215 | 29.44° C | 51% | 1033.5 hPa | - | - | - | - |
| 1787923613 | 29.44° C | 51% | 1033.5 hPa | - | - | - | - |
| 1787923011 | 30° C | 50% | 1033.4 hPa | - | - | - | - |
| 1787922408 | 30° C | 50% | 1033.3 hPa | - | - | - | - |
* Rain since midnight (hover to see other rain measurements)
** Current wind speed in m/s (hover to see current wind gust speed)